Rome, OR

12:02 PM MDT on June 22, 2017 (GMT -0600)
Rome State

Weather History for KREO - February, 2013

Change the Weather History Date:

Friday, February 22, 2013

  Actual Average Record
Temperature  
Mean Temperature 35 °F 35 °F  
Max Temperature 47 °F 47 °F 67 °F (1958)
Min Temperature 23 °F 23 °F 11 °F (1942)
Degree Days  
Heating Degree Days 30 30  
Month to date heating degree days 670 709  
Since 1 July heating degree days 4462 4558  
Cooling Degree Days 0 0  
Month to date cooling degree days 0 0  
Year to date cooling degree days 0 0  
Moisture  
Dew Point 24 °F    
Average Humidity 64    
Maximum Humidity 88    
Minimum Humidity 40    
Precipitation  
Precipitation 0.00 in 0.04 in 0.57 in (2017)
Month to date precipitation 0.14 0.59  
Year to date precipitation 0.69 1.24  
Sea Level Pressure  
Sea Level Pressure 30.04 in    
Wind  
Wind Speed 13 mph (SSW)    
Max Wind Speed 31 mph    
Max Gust Speed 41 mph    
T = Trace of Precipitation, MM = Missing Value Source: NWS Daily Summary

Daily Weather History Graph

Daily Weather History Graph

Search for Another Location

Airport or City:

Trip Planner

Search our weather history database for the weather conditions in past years. The results will help you decide how hot, cold, wet, or windy it might be!

Date:

Astronomy

Feb. 22, 2013 Rise Set
Actual Time 6:37 AM PST 5:32 PM PST
Civil Twilight 6:09 AM PST 6:01 PM PST
Nautical Twilight 5:36 AM PST 6:34 PM PST
Astronomical Twilight 5:03 AM PST 7:06 PM PST
Moon 2:46 PM PST 4:28 AM PST
Length of Visible Light 11h 52m
Length of Day
10h 55m
Waxing Gibbous, 91% of the Moon is Illuminated
Feb 22
Waxing Gibbous
Feb 25
Full
Mar 4
Last Quarter
Mar 11
New
Mar 19
First Quarter

Hourly Weather History & Observations

Time (PST) Temp. Windchill Dew Point Humidity Pressure Visibility Wind Dir Wind Speed Gust Speed Precip Events Conditions
12:52 AM 27.0 °F 18.7 °F 21.0 °F 78% 30.14 in - South 8.1 mph - N/A   Unknown
1:52 AM 23.0 °F 17.0 °F 19.9 °F 88% 30.15 in - SSW 4.6 mph - N/A   Unknown
2:52 AM 27.0 °F 18.7 °F 21.9 °F 81% 30.13 in - SE 8.1 mph - N/A   Unknown
3:52 AM 28.0 °F 24.2 °F 21.0 °F 75% 30.13 in - South 3.5 mph - N/A   Unknown
4:52 AM 28.9 °F 22.8 °F 21.9 °F 75% 30.14 in - SSE 5.8 mph - N/A   Unknown
6:52 AM 28.9 °F 22.8 °F 21.9 °F 75% 30.17 in - South 5.8 mph - N/A   Unknown
7:52 AM 33.1 °F 25.5 °F 23.0 °F 66% 30.17 in - SSW 9.2 mph - N/A   Unknown
8:52 AM 35.1 °F 27.4 °F 23.0 °F 61% 30.17 in - SSW 10.4 mph - N/A   Unknown
9:52 AM 37.9 °F 30.0 °F 21.9 °F 53% 30.16 in - SW 12.7 mph - N/A   Unknown
10:52 AM 42.1 °F 34.5 °F 21.9 °F 45% 30.14 in - SSW 15.0 mph 23.0 mph N/A   Unknown
11:52 AM 43.0 °F 35.1 °F 21.0 °F 42% 30.12 in - SSW 17.3 mph 25.3 mph N/A   Unknown
12:52 PM 44.1 °F 37.1 °F 21.0 °F 40% 30.08 in - SSW 15.0 mph - N/A   Unknown
1:52 PM 45.0 °F 37.4 °F 21.0 °F 39% 30.05 in - SSW 18.4 mph 25.3 mph N/A   Unknown
2:52 PM 44.1 °F 36.5 °F 21.0 °F 40% 30.03 in - SSW 17.3 mph 27.6 mph N/A   Unknown
3:52 PM 44.1 °F 37.1 °F 21.0 °F 40% 30.00 in - South 15.0 mph 23.0 mph N/A   Unknown
4:52 PM 43.0 °F 36.8 °F 21.9 °F 43% 29.97 in - South 11.5 mph 18.4 mph N/A   Unknown
5:52 PM 44.1 °F 36.2 °F 21.9 °F 42% 29.94 in - South 18.4 mph 25.3 mph N/A   Unknown
6:52 PM 39.9 °F 29.7 °F 30.9 °F 70% 29.97 in - SSW 23.0 mph 32.2 mph N/A   Unknown
7:52 PM 39.0 °F 27.6 °F 30.0 °F 70% 29.90 in - SSW 27.6 mph 34.5 mph N/A   Unknown
8:52 PM 39.9 °F 32.9 °F 30.0 °F 68% 29.88 in - South 11.5 mph - N/A   Unknown
9:52 PM 41.0 °F 33.9 °F 28.0 °F 60% 29.85 in - South 12.7 mph - N/A   Unknown
10:52 PM 39.9 °F 32.1 °F 27.0 °F 60% 29.80 in - SSW 13.8 mph - N/A   Unknown
11:52 PM 39.0 °F 31.0 °F 30.9 °F 73% 29.78 in - SW 13.8 mph - N/A   Unknown